Weather History for KABR - March, 2014

Change the Weather History Date:

Friday, March 7, 2014

  Actual Average Record
Temperature  
Mean Temperature 23 °F 26 °F  
Max Temperature 33 °F 35 °F 69 °F (1987)
Min Temperature 13 °F 16 °F -24 °F (1995)
Degree Days  
Heating Degree Days 42 39  
Month to date heating degree days 387 284  
Since 1 July heating degree days 7546 6747  
Cooling Degree Days 0 0  
Month to date cooling degree days 0 0  
Year to date cooling degree days 0 0  
Moisture  
Dew Point 17 °F    
Average Humidity 80    
Maximum Humidity 92    
Minimum Humidity 68    
Precipitation  
Precipitation 0.03 in 0.03 in 0.22 in (1951)
Month to date precipitation 0.33 0.20  
Year to date precipitation 0.77 1.22  
Snow  
Snow 0.00 in - - ()
Month to date snowfall 3.4  
Since 1 July snowfall 27.8  
Snow Depth 1.00 in    
Sea Level Pressure  
Sea Level Pressure 30.13 in    
Wind  
Wind Speed 18 mph (North)    
Max Wind Speed 30 mph    
Max Gust Speed 36 mph    
Visibility 9 miles    
Events Rain    
T = Trace of Precipitation, MM = Missing Value Source: NWS Daily Summary

Daily Weather History Graph

Daily Weather History Graph

Search for Another Location

Airport or City:

Trip Planner

Search our weather history database for the weather conditions in past years. The results will help you decide how hot, cold, wet, or windy it might be!

Date:

Astronomy

Mar. 07, 2014 Rise Set
Actual Time 7:01 AM CST 6:28 PM CST
Civil Twilight 6:31 AM CST 6:58 PM CST
Nautical Twilight 5:57 AM CST 7:32 PM CST
Astronomical Twilight 5:22 AM CST 8:07 PM CST
Moon 10:37 AM CST (3/7) 12:52 AM CST (3/7)
Length of Visible Light 12h 27m
Length of Day
11h 27m
Waxing Crescent, 42% of the Moon is Illuminated
Mar 7
Waxing Crescent
Mar 8
First Quarter
Mar 16
Full
Mar 23
Last Quarter
Mar 30
New

Hourly Weather History & Observations

Time (CST) Temp. Windchill Dew Point Humidity Pressure Visibility Wind Dir Wind Speed Gust Speed Precip Events Conditions
12:53 AM 32.0 °F 22.5 °F 30.9 °F 96% 29.81 in 6.0 mi North 12.7 mph - N/A   Overcast
1:24 AM 32.0 °F 22.1 °F 30.0 °F 92% 29.79 in 6.0 mi North 13.8 mph - 0.00 in Rain Light Rain
1:31 AM 32.0 °F 22.1 °F 30.0 °F 92% 29.80 in 5.0 mi North 13.8 mph - 0.00 in   Overcast
1:53 AM 32.0 °F 22.5 °F 30.0 °F 92% 29.85 in 5.0 mi North 12.7 mph - 0.02 in   Overcast
2:53 AM 28.0 °F 13.3 °F 25.0 °F 88% 29.89 in 6.0 mi North 25.3 mph 31.1 mph 0.01 in   Overcast
3:53 AM 24.1 °F 6.6 °F 19.9 °F 84% 29.91 in 8.0 mi North 31.1 mph 36.8 mph N/A   Overcast
4:04 AM 23.0 °F 6.0 °F 19.9 °F 88% 29.87 in 8.0 mi North 27.6 mph 34.5 mph N/A   Overcast
4:27 AM 23.0 °F 8.3 °F 19.9 °F 88% 29.90 in 8.0 mi North 19.6 mph 27.6 mph N/A   Overcast
4:53 AM 21.0 °F 4.3 °F 18.0 °F 88% 29.98 in 8.0 mi NNW 24.2 mph 33.4 mph N/A   Overcast
5:39 AM 19.9 °F 3.9 °F 16.0 °F 85% 29.96 in 9.0 mi NNW 20.7 mph - N/A   Overcast
5:53 AM 19.9 °F 4.3 °F 16.0 °F 85% 30.01 in 9.0 mi NNW 19.6 mph - N/A   Overcast
6:53 AM 19.0 °F 3.2 °F 16.0 °F 88% 30.06 in 8.0 mi NNW 19.6 mph - N/A   Overcast
7:53 AM 18.0 °F 1.7 °F 14.0 °F 84% 30.09 in 7.0 mi North 19.6 mph - N/A   Overcast
8:20 AM 18.0 °F 1.7 °F 12.9 °F 81% 30.06 in 9.0 mi NNW 19.6 mph 25.3 mph N/A   Scattered Clouds
8:53 AM 18.0 °F 1.7 °F 12.9 °F 81% 30.12 in 10.0 mi NNW 19.6 mph 27.6 mph N/A   Clear
9:53 AM 19.0 °F 2.4 °F 12.9 °F 77% 30.15 in 10.0 mi NNW 21.9 mph 29.9 mph N/A   Mostly Cloudy
10:53 AM 23.0 °F 7.6 °F 16.0 °F 74% 30.16 in 10.0 mi North 21.9 mph - N/A   Scattered Clouds
11:35 AM 23.0 °F 8.3 °F 15.1 °F 72% 30.12 in 10.0 mi NNW 19.6 mph 28.8 mph N/A   Mostly Cloudy
11:53 AM 23.0 °F 6.9 °F 16.0 °F 74% 30.18 in 10.0 mi North 24.2 mph - N/A   Overcast
12:53 PM 23.0 °F 7.6 °F 15.1 °F 72% 30.20 in 10.0 mi NNW 21.9 mph - N/A   Overcast
1:53 PM 25.0 °F 10.9 °F 16.0 °F 69% 30.19 in 10.0 mi North 19.6 mph - N/A   Overcast
2:53 PM 24.1 °F 8.3 °F 16.0 °F 71% 30.20 in 10.0 mi North 24.2 mph 28.8 mph N/A   Mostly Cloudy
3:53 PM 24.1 °F 11.0 °F 16.0 °F 71% 30.24 in 10.0 mi North 16.1 mph - N/A   Mostly Cloudy
4:39 PM 24.1 °F 10.6 °F 15.1 °F 69% 30.19 in 10.0 mi North 17.3 mph - N/A   Scattered Clouds
4:53 PM 24.1 °F 11.5 °F 15.1 °F 69% 30.26 in 10.0 mi North 15.0 mph 24.2 mph N/A   Mostly Cloudy
5:03 PM 23.0 °F 9.2 °F 15.1 °F 72% 30.20 in 10.0 mi North 17.3 mph 23.0 mph N/A   Scattered Clouds
5:25 PM 23.0 °F 9.6 °F 14.0 °F 68% 30.22 in 10.0 mi North 16.1 mph - N/A   Mostly Cloudy
5:53 PM 21.9 °F 9.2 °F 15.1 °F 75% 30.29 in 10.0 mi North 13.8 mph - N/A   Overcast
6:53 PM 19.9 °F 6.7 °F 14.0 °F 78% 30.31 in 10.0 mi NNE 13.8 mph - N/A   Overcast
7:53 PM 19.0 °F 6.1 °F 12.9 °F 77% 30.34 in 10.0 mi North 12.7 mph - N/A   Overcast
8:53 PM 18.0 °F 4.8 °F 12.9 °F 81% 30.36 in 10.0 mi North 12.7 mph - N/A   Overcast
9:53 PM 17.1 °F 6.6 °F 12.0 °F 81% 30.37 in 10.0 mi North 8.1 mph - N/A   Overcast
10:30 PM 15.1 °F 4.2 °F 12.0 °F 88% 30.31 in 10.0 mi North 8.1 mph - N/A   Scattered Clouds
10:53 PM 15.1 °F 3.3 °F 10.9 °F 84% 30.38 in 10.0 mi North 9.2 mph - N/A   Clear
11:53 PM 12.9 °F -0.9 °F 10.0 °F 88% 30.39 in 10.0 mi North 11.5 mph - N/A   Clear